User: anonymous   Login
Location: Stull Observatory
(42.2506°N, 77.7903°W)
Time: 01:18:35
(UTC-04:00)
Language:

Abrixas rocket - Orbit

View from above orbital plane
View from above orbital plane
View from above satellite
View from above satellite

Ground track
Ground track

The orbit data is extracted from the following two-line orbital elements,

1 25723U 99022C   18109.04129730  .00006687  00000-0  90427-4 0  9999
2 25723  48.4152 330.7591 0007740  72.3165 287.8626 15.58892986 54149
Epoch (UTC): 19 April 2018 00:59:28
Eccentricity: 0.0007740
inclination: 48.4152°
perigee height: 385 km
apogee height: 396 km
right ascension of ascending node: 330.7591°
argument of perigee: 72.3165°
revolutions per day: 15.58892986
mean anomaly at epoch: 287.8626°
orbit number at epoch: 5414

The dashed part of the orbit path shows where the satellite is in the earth's shadow,  

DLR